PPDGH SBNF-SSPG

Flight info

Callsign PPDGH
Flight time 0h 55m
Altitude 2500
Route DCT 2646S04839W REA 2553S04833W DCT
Aircraft P28A/L-SFGR/C

Departure

Time 2026-04-27 20:22
Airport Ministro Victor Konder International Airport (SBNF)

Arrival

Time 2026-04-27 21:17
Airport Paranaguá Airport (SSPG)
Time Latitude Longitude Altitude Speed Heading
2026-04-27 20:10 -26.87916 -48.64761 23 ft 0 kts 236°
2026-04-27 20:16 -26.87917 -48.64762 23 ft 2 kts 236°
2026-04-27 20:16 -26.87926 -48.64781 23 ft 3 kts 273°
2026-04-27 20:16 -26.87901 -48.64807 23 ft 5 kts 326°
2026-04-27 20:17 -26.87900 -48.64839 23 ft 4 kts 279°
2026-04-27 20:17 -26.87887 -48.64856 23 ft 1 kts 325°
2026-04-27 20:17 -26.87886 -48.64857 23 ft 0 kts 325°
2026-04-27 20:19 -26.87879 -48.64862 23 ft 4 kts 327°
2026-04-27 20:19 -26.87836 -48.64888 24 ft 10 kts 357°
2026-04-27 20:19 -26.87772 -48.64817 24 ft 17 kts 56°
2026-04-27 20:19 -26.87695 -48.64691 26 ft 23 kts 55°
2026-04-27 20:20 -26.87594 -48.64525 25 ft 29 kts 56°
2026-04-27 20:20 -26.87544 -48.64414 25 ft 10 kts 42°
2026-04-27 20:20 -26.87540 -48.64435 25 ft 0 kts 233°
2026-04-27 20:21 -26.87571 -48.64488 25 ft 28 kts 236°
2026-04-27 20:21 -26.87781 -48.64824 44 ft 72 kts 234°
2026-04-27 20:21 -26.88064 -48.65291 280 ft 70 kts 235°
2026-04-27 20:21 -26.88328 -48.65746 504 ft 69 kts 237°
2026-04-27 20:22 -26.88456 -48.66250 738 ft 70 kts 268°
2026-04-27 20:22 -26.88270 -48.66763 925 ft 74 kts 302°
2026-04-27 20:22 -26.87843 -48.67114 1088 ft 79 kts 332°
2026-04-27 20:22 -26.87294 -48.67185 1266 ft 81 kts 357°
2026-04-27 20:23 -26.86728 -48.67172 1451 ft 81 kts 354°
2026-04-27 20:23 -26.86174 -48.67222 1622 ft 80 kts 347°
2026-04-27 20:23 -26.85612 -48.67291 1759 ft 82 kts 346°
2026-04-27 20:23 -26.85055 -48.67373 1902 ft 81 kts 346°
2026-04-27 20:24 -26.84497 -48.67446 2052 ft 81 kts 346°
2026-04-27 20:24 -26.83944 -48.67521 2233 ft 80 kts 345°
2026-04-27 20:24 -26.83373 -48.67625 2341 ft 85 kts 342°
2026-04-27 20:24 -26.82782 -48.67718 2455 ft 85 kts 347°
2026-04-27 20:25 -26.82182 -48.67817 2528 ft 88 kts 343°
2026-04-27 20:25 -26.81555 -48.67919 2572 ft 94 kts 352°
2026-04-27 20:25 -26.80876 -48.67896 2603 ft 100 kts 356°
2026-04-27 20:25 -26.80174 -48.67857 2671 ft 101 kts 357°
2026-04-27 20:26 -26.79476 -48.67769 2738 ft 101 kts
2026-04-27 20:26 -26.78775 -48.67687 2720 ft 103 kts 352°
2026-04-27 20:26 -26.78062 -48.67704 2733 ft 103 kts 354°
2026-04-27 20:26 -26.77349 -48.67714 2735 ft 104 kts 355°
2026-04-27 20:27 -26.76628 -48.67705 2765 ft 103 kts 354°
2026-04-27 20:27 -26.75909 -48.67704 2780 ft 104 kts 354°
2026-04-27 20:27 -26.75194 -48.67732 2810 ft 102 kts 353°
2026-04-27 20:27 -26.74479 -48.67758 2818 ft 103 kts 352°
2026-04-27 20:28 -26.73763 -48.67777 2821 ft 103 kts 354°
2026-04-27 20:28 -26.73044 -48.67802 2813 ft 103 kts 353°
2026-04-27 20:28 -26.72330 -48.67821 2815 ft 103 kts 353°
2026-04-27 20:28 -26.71855 -48.67834 2807 ft 103 kts 353°
2026-04-27 20:29 -26.70897 -48.67865 2799 ft 103 kts 353°
2026-04-27 20:29 -26.70181 -48.67884 2779 ft 103 kts 353°
2026-04-27 20:29 -26.69465 -48.67908 2777 ft 103 kts 353°
2026-04-27 20:29 -26.68750 -48.67925 2772 ft 103 kts 353°
2026-04-27 20:30 -26.68036 -48.67942 2769 ft 103 kts 353°
2026-04-27 20:30 -26.67331 -48.67964 2763 ft 102 kts 353°
2026-04-27 20:30 -26.66616 -48.67988 2730 ft 103 kts 353°
2026-04-27 20:30 -26.65900 -48.68013 2723 ft 103 kts 353°
2026-04-27 20:31 -26.65186 -48.68037 2706 ft 103 kts 353°
2026-04-27 20:31 -26.64471 -48.68046 2692 ft 104 kts 358°
2026-04-27 20:31 -26.63755 -48.67863 2684 ft 106 kts 17°
2026-04-27 20:31 -26.63081 -48.67532 2692 ft 106 kts 20°
2026-04-27 20:32 -26.62404 -48.67200 2682 ft 106 kts 20°
2026-04-27 20:32 -26.61731 -48.66870 2677 ft 106 kts 20°
2026-04-27 20:32 -26.61057 -48.66535 2677 ft 106 kts 20°
2026-04-27 20:32 -26.60381 -48.66199 2668 ft 107 kts 20°
2026-04-27 20:33 -26.59705 -48.65863 2676 ft 106 kts 20°
2026-04-27 20:33 -26.59041 -48.65529 2666 ft 107 kts 20°
2026-04-27 20:33 -26.58357 -48.65184 2666 ft 106 kts 21°
2026-04-27 20:33 -26.57687 -48.64850 2653 ft 107 kts 20°
2026-04-27 20:34 -26.57013 -48.64513 2660 ft 106 kts 20°
2026-04-27 20:34 -26.56342 -48.64177 2665 ft 105 kts 20°
2026-04-27 20:34 -26.55671 -48.63839 2648 ft 106 kts 20°
2026-04-27 20:34 -26.54998 -48.63501 2654 ft 105 kts 20°
2026-04-27 20:35 -26.54325 -48.63169 2645 ft 106 kts 20°
2026-04-27 20:35 -26.53651 -48.62833 2648 ft 106 kts 20°
2026-04-27 20:35 -26.52979 -48.62496 2647 ft 106 kts 21°
2026-04-27 20:35 -26.52307 -48.62163 2647 ft 106 kts 20°
2026-04-27 20:36 -26.51638 -48.61828 2656 ft 105 kts 20°
2026-04-27 20:36 -26.50966 -48.61492 2658 ft 106 kts 21°
2026-04-27 20:36 -26.50294 -48.61158 2656 ft 106 kts 20°
2026-04-27 20:36 -26.49626 -48.60824 2653 ft 105 kts 21°
2026-04-27 20:37 -26.48956 -48.60492 2647 ft 106 kts 21°
2026-04-27 20:37 -26.48287 -48.60157 2660 ft 105 kts 20°
2026-04-27 20:37 -26.47619 -48.59821 2662 ft 105 kts 20°
2026-04-27 20:37 -26.46936 -48.59548 2658 ft 104 kts 14°
2026-04-27 20:38 -26.46242 -48.59319 2658 ft 104 kts 13°
2026-04-27 20:38 -26.45553 -48.59088 2657 ft 103 kts 13°
2026-04-27 20:38 -26.44872 -48.58861 2658 ft 103 kts 13°
2026-04-27 20:38 -26.44182 -48.58632 2644 ft 104 kts 13°
2026-04-27 20:39 -26.43492 -48.58399 2654 ft 103 kts 13°
2026-04-27 20:39 -26.42804 -48.58167 2665 ft 103 kts 13°
2026-04-27 20:39 -26.42118 -48.57937 2663 ft 103 kts 12°
2026-04-27 20:39 -26.41429 -48.57702 2658 ft 103 kts 13°
2026-04-27 20:40 -26.40750 -48.57471 2679 ft 102 kts 13°
2026-04-27 20:40 -26.40067 -48.57239 2672 ft 103 kts 13°
2026-04-27 20:40 -26.39382 -48.57010 2672 ft 103 kts 13°
2026-04-27 20:40 -26.38699 -48.56777 2678 ft 102 kts 13°
2026-04-27 20:41 -26.38016 -48.56543 2670 ft 103 kts 13°
2026-04-27 20:41 -26.37333 -48.56316 2668 ft 103 kts 13°
2026-04-27 20:41 -26.36645 -48.56083 2678 ft 103 kts 13°
2026-04-27 20:41 -26.35966 -48.55853 2680 ft 102 kts 13°
2026-04-27 20:42 -26.35285 -48.55622 2677 ft 102 kts 13°
2026-04-27 20:42 -26.34600 -48.55388 2679 ft 103 kts 13°
2026-04-27 20:42 -26.33916 -48.55159 2683 ft 102 kts 13°
2026-04-27 20:42 -26.33235 -48.54930 2690 ft 102 kts 13°
2026-04-27 20:43 -26.32557 -48.54704 2682 ft 103 kts 13°
2026-04-27 20:43 -26.31875 -48.54477 2684 ft 102 kts 13°
2026-04-27 20:43 -26.31201 -48.54249 2679 ft 101 kts 13°
2026-04-27 20:43 -26.30526 -48.54026 2641 ft 103 kts 14°
2026-04-27 20:44 -26.29847 -48.53803 2640 ft 101 kts 13°
2026-04-27 20:44 -26.29175 -48.53575 2647 ft 101 kts 13°
2026-04-27 20:44 -26.28497 -48.53344 2628 ft 102 kts 14°
2026-04-27 20:44 -26.27813 -48.53123 2608 ft 102 kts 13°
2026-04-27 20:45 -26.27135 -48.52904 2610 ft 102 kts 13°
2026-04-27 20:45 -26.26460 -48.52676 2603 ft 101 kts 13°
2026-04-27 20:45 -26.25783 -48.52450 2577 ft 101 kts 14°
2026-04-27 20:45 -26.25108 -48.52234 2574 ft 101 kts 14°
2026-04-27 20:46 -26.24438 -48.52021 2594 ft 100 kts 12°
2026-04-27 20:46 -26.23764 -48.51796 2563 ft 101 kts 14°
2026-04-27 20:46 -26.23100 -48.51582 2552 ft 100 kts 13°
2026-04-27 20:46 -26.22420 -48.51420 2534 ft 99 kts
2026-04-27 20:47 -26.21729 -48.51440 2532 ft 99 kts 351°
2026-04-27 20:47 -26.21051 -48.51522 2531 ft 99 kts 351°
2026-04-27 20:47 -26.20375 -48.51604 2536 ft 98 kts 351°
2026-04-27 20:47 -26.19695 -48.51684 2534 ft 99 kts 351°
2026-04-27 20:48 -26.19005 -48.51772 2544 ft 98 kts 351°
2026-04-27 20:48 -26.18555 -48.51825 2533 ft 99 kts 351°
2026-04-27 20:48 -26.17651 -48.51932 2529 ft 98 kts 351°
2026-04-27 20:48 -26.16973 -48.52011 2526 ft 98 kts 351°
2026-04-27 20:49 -26.16292 -48.52090 2520 ft 98 kts 351°
2026-04-27 20:49 -26.15617 -48.52172 2527 ft 97 kts 351°
2026-04-27 20:49 -26.14941 -48.52253 2521 ft 99 kts 351°
2026-04-27 20:49 -26.14257 -48.52295 2547 ft 97 kts 354°
2026-04-27 20:50 -26.13584 -48.52340 2540 ft 98 kts 354°
2026-04-27 20:50 -26.12903 -48.52384 2546 ft 98 kts 354°
2026-04-27 20:50 -26.12221 -48.52428 2553 ft 98 kts 354°
2026-04-27 20:50 -26.11539 -48.52476 2555 ft 98 kts 354°
2026-04-27 20:51 -26.10858 -48.52523 2562 ft 98 kts 354°
2026-04-27 20:51 -26.10177 -48.52567 2560 ft 99 kts 354°
2026-04-27 20:51 -26.09491 -48.52614 2561 ft 98 kts 354°
2026-04-27 20:51 -26.08809 -48.52662 2569 ft 98 kts 354°
2026-04-27 20:52 -26.08136 -48.52707 2574 ft 98 kts 354°
2026-04-27 20:52 -26.07448 -48.52754 2576 ft 98 kts 354°
2026-04-27 20:52 -26.06772 -48.52803 2580 ft 98 kts 354°
2026-04-27 20:52 -26.06092 -48.52852 2591 ft 98 kts 354°
2026-04-27 20:53 -26.05408 -48.52898 2592 ft 98 kts 354°
2026-04-27 20:53 -26.04734 -48.52945 2602 ft 97 kts 354°
2026-04-27 20:53 -26.04049 -48.52997 2589 ft 99 kts 354°
2026-04-27 20:53 -26.03371 -48.53042 2596 ft 97 kts 354°
2026-04-27 20:54 -26.02011 -48.53133 2577 ft 97 kts 354°
2026-04-27 20:54 -26.01332 -48.53175 2571 ft 98 kts 354°
2026-04-27 20:54 -26.00884 -48.53204 2579 ft 97 kts 354°
2026-04-27 20:55 -25.99976 -48.53268 2559 ft 98 kts 354°
2026-04-27 20:55 -25.99306 -48.53310 2580 ft 96 kts 354°
2026-04-27 20:55 -25.98628 -48.53355 2550 ft 98 kts 354°
2026-04-27 20:55 -25.98181 -48.53383 2564 ft 97 kts 354°
2026-04-27 20:56 -25.97276 -48.53446 2543 ft 98 kts 354°
2026-04-27 20:56 -25.96826 -48.53476 2551 ft 97 kts 354°
2026-04-27 20:56 -25.95933 -48.53533 2549 ft 98 kts 354°
2026-04-27 20:56 -25.95255 -48.53582 2557 ft 98 kts 354°
2026-04-27 20:57 -25.94577 -48.53628 2564 ft 97 kts 354°
2026-04-27 20:57 -25.94121 -48.53657 2567 ft 97 kts 354°
2026-04-27 20:57 -25.93447 -48.53700 2579 ft 97 kts 354°
2026-04-27 20:57 -25.92771 -48.53743 2578 ft 97 kts 354°
2026-04-27 20:58 -25.92105 -48.53787 2584 ft 97 kts 354°
2026-04-27 20:58 -25.91423 -48.53832 2594 ft 97 kts 354°
2026-04-27 20:58 -25.90747 -48.53876 2596 ft 97 kts 354°
2026-04-27 20:58 -25.90079 -48.53920 2592 ft 98 kts 355°
2026-04-27 20:59 -25.89399 -48.53969 2611 ft 97 kts 354°
2026-04-27 20:59 -25.88727 -48.54011 2627 ft 97 kts 355°
2026-04-27 20:59 -25.88053 -48.54044 2615 ft 98 kts 357°
2026-04-27 20:59 -25.87371 -48.54015 2627 ft 97 kts
2026-04-27 21:00 -25.86696 -48.53964 2626 ft 98 kts
2026-04-27 21:00 -25.86017 -48.53915 2643 ft 97 kts
2026-04-27 21:00 -25.85342 -48.53862 2634 ft 98 kts
2026-04-27 21:00 -25.84664 -48.53812 2641 ft 97 kts
2026-04-27 21:01 -25.83988 -48.53760 2647 ft 97 kts
2026-04-27 21:01 -25.83312 -48.53708 2638 ft 97 kts
2026-04-27 21:01 -25.82638 -48.53655 2637 ft 97 kts
2026-04-27 21:01 -25.81963 -48.53601 2622 ft 97 kts
2026-04-27 21:02 -25.81288 -48.53549 2626 ft 97 kts
2026-04-27 21:02 -25.80619 -48.53498 2606 ft 97 kts
2026-04-27 21:02 -25.79940 -48.53444 2609 ft 97 kts
2026-04-27 21:02 -25.79278 -48.53398 2605 ft 97 kts
2026-04-27 21:03 -25.78601 -48.53346 2609 ft 97 kts
2026-04-27 21:03 -25.77927 -48.53294 2591 ft 98 kts
2026-04-27 21:03 -25.77253 -48.53245 2598 ft 96 kts
2026-04-27 21:03 -25.76580 -48.53190 2597 ft 97 kts
2026-04-27 21:04 -25.75907 -48.53142 2600 ft 97 kts
2026-04-27 21:04 -25.75232 -48.53092 2603 ft 97 kts
2026-04-27 21:04 -25.74560 -48.53042 2602 ft 97 kts
2026-04-27 21:04 -25.73887 -48.52995 2612 ft 97 kts
2026-04-27 21:05 -25.73215 -48.52944 2615 ft 97 kts
2026-04-27 21:05 -25.72540 -48.52895 2624 ft 97 kts
2026-04-27 21:05 -25.71869 -48.52846 2629 ft 97 kts
2026-04-27 21:05 -25.71196 -48.52796 2638 ft 97 kts
2026-04-27 21:06 -25.70522 -48.52749 2635 ft 97 kts
2026-04-27 21:06 -25.69849 -48.52701 2643 ft 97 kts
2026-04-27 21:06 -25.69174 -48.52664 2646 ft 97 kts
2026-04-27 21:06 -25.68503 -48.52628 2654 ft 97 kts
2026-04-27 21:07 -25.67830 -48.52591 2669 ft 96 kts
2026-04-27 21:07 -25.67155 -48.52557 2657 ft 97 kts
2026-04-27 21:07 -25.66483 -48.52523 2664 ft 96 kts
2026-04-27 21:07 -25.65818 -48.52489 2662 ft 96 kts
2026-04-27 21:08 -25.65149 -48.52458 2657 ft 97 kts
2026-04-27 21:08 -25.64478 -48.52423 2665 ft 96 kts
2026-04-27 21:08 -25.63807 -48.52391 2659 ft 97 kts
2026-04-27 21:08 -25.63136 -48.52359 2668 ft 96 kts
2026-04-27 21:09 -25.62463 -48.52326 2671 ft 96 kts
2026-04-27 21:09 -25.61795 -48.52294 2672 ft 97 kts
2026-04-27 21:09 -25.61122 -48.52259 2676 ft 96 kts
2026-04-27 21:09 -25.60451 -48.52225 2676 ft 97 kts
2026-04-27 21:10 -25.59779 -48.52194 2681 ft 96 kts
2026-04-27 21:10 -25.59108 -48.52160 2686 ft 97 kts
2026-04-27 21:10 -25.58439 -48.52129 2686 ft 96 kts
2026-04-27 21:10 -25.57768 -48.52098 2690 ft 96 kts
2026-04-27 21:11 -25.57087 -48.52073 2563 ft 102 kts 357°
2026-04-27 21:11 -25.56394 -48.52185 2452 ft 99 kts
2026-04-27 21:11 -25.55777 -48.51899 2357 ft 97 kts 42°
2026-04-27 21:11 -25.55491 -48.51242 2275 ft 95 kts 79°
2026-04-27 21:12 -25.55615 -48.50543 2118 ft 91 kts 121°
2026-04-27 21:12 -25.56128 -48.50164 1850 ft 90 kts 165°
2026-04-27 21:12 -25.56745 -48.50240 1558 ft 93 kts 201°
2026-04-27 21:12 -25.57228 -48.50665 1350 ft 87 kts 232°
2026-04-27 21:13 -25.57413 -48.51292 1115 ft 88 kts 269°
2026-04-27 21:13 -25.57204 -48.51899 894 ft 87 kts 312°
2026-04-27 21:13 -25.56651 -48.52200 866 ft 87 kts 352°
2026-04-27 21:13 -25.56045 -48.52253 969 ft 89 kts 351°
2026-04-27 21:14 -25.55435 -48.52395 1032 ft 90 kts
2026-04-27 21:14 -25.54958 -48.52029 1093 ft 88 kts 69°
2026-04-27 21:14 -25.54787 -48.51401 1164 ft 80 kts 72°
2026-04-27 21:14 -25.54580 -48.50860 1074 ft 76 kts 58°
2026-04-27 21:15 -25.54201 -48.50446 959 ft 76 kts 41°
2026-04-27 21:15 -25.53680 -48.50304 797 ft 83 kts 353°
2026-04-27 21:15 -25.53170 -48.50616 664 ft 85 kts 313°
2026-04-27 21:15 -25.52876 -48.51120 534 ft 74 kts 294°
2026-04-27 21:16 -25.52898 -48.51669 367 ft 72 kts 248°
2026-04-27 21:16 -25.53194 -48.52096 216 ft 69 kts 228°
2026-04-27 21:16 -25.53508 -48.52483 96 ft 67 kts 227°
2026-04-27 21:16 -25.53792 -48.52840 39 ft 51 kts 227°
2026-04-27 21:17 -25.53874 -48.52968 37 ft 8 kts 306°
2026-04-27 21:17 -25.53831 -48.53010 36 ft 5 kts 320°
2026-04-27 21:17 -25.53819 -48.53011 36 ft 4 kts 39°
2026-04-27 21:17 -25.53807 -48.52988 36 ft 4 kts 63°
2026-04-27 21:18 -25.53799 -48.52973 37 ft 2 kts 52°
2026-04-27 21:18 -25.53795 -48.52973 37 ft 1 kts 310°
2026-04-27 21:18 -25.53794 -48.52975 36 ft 0 kts 269°